Time,TemperatureF,DewpointF,PressureIn,WindDirection,WindDirectionDegrees,WindSpeedMPH,WindSpeedGustMPH,Humidity,HourlyPrecipIn,Conditions,Clouds,dailyrainin,SoftwareType,DateUTC
2013-02-15 00:14:00,21.8,18.0,29.96,South,185,4.0,8.0,85,0.00,,,0.00,weatherlink.com 1.10,2013-02-15 05:14:00,
2013-02-15 00:29:00,22.0,19.0,29.95,SSW,207,2.0,7.0,86,0.00,,,0.00,weatherlink.com 1.10,2013-02-15 05:29:00,
2013-02-15 00:44:00,22.6,19.0,29.95,South,186,3.0,5.0,86,0.00,,,0.00,weatherlink.com 1.10,2013-02-15 05:44:00,
2013-02-15 00:59:00,23.2,19.0,29.95,SSW,202,5.0,5.0,85,0.00,,,0.00,weatherlink.com 1.10,2013-02-15 05:59:00,
2013-02-15 01:15:00,23.5,20.0,29.95,South,190,2.0,4.0,85,0.00,,,0.00,weatherlink.com 1.10,2013-02-15 06:15:00,
2013-02-15 01:30:00,23.8,20.0,29.95,SSW,196,2.0,5.0,84,0.00,,,0.00,weatherlink.com 1.10,2013-02-15 06:30:00,
2013-02-15 01:45:00,24.4,20.0,29.95,SSW,210,4.0,6.0,84,0.00,,,0.00,weatherlink.com 1.10,2013-02-15 06:45:00,
2013-02-15 02:00:00,25.0,21.0,29.94,SSW,206,6.0,8.0,84,0.00,,,0.00,weatherlink.com 1.10,2013-02-15 07:00:00,
2013-02-15 02:15:00,24.9,20.0,29.94,SSW,198,4.0,7.0,82,0.00,,,0.00,weatherlink.com 1.10,2013-02-15 07:15:00,
2013-02-15 02:30:00,24.2,20.0,29.93,South,190,2.0,5.0,83,0.00,,,0.00,weatherlink.com 1.10,2013-02-15 07:30:00,
2013-02-15 02:45:00,23.5,19.0,29.93,South,182,5.0,7.0,83,0.00,,,0.00,weatherlink.com 1.10,2013-02-15 07:45:00,
2013-02-15 03:00:00,22.8,19.0,29.92,South,190,1.0,5.0,85,0.00,,,0.00,weatherlink.com 1.10,2013-02-15 08:00:00,
2013-02-15 03:15:00,22.5,19.0,29.92,SSW,192,6.0,6.0,85,0.00,,,0.00,weatherlink.com 1.10,2013-02-15 08:15:00,
2013-02-15 03:30:00,22.4,18.0,29.92,South,188,4.0,6.0,84,0.00,,,0.00,weatherlink.com 1.10,2013-02-15 08:30:00,
2013-02-15 03:45:00,22.3,18.0,29.92,SSW,196,1.0,5.0,84,0.00,,,0.00,weatherlink.com 1.10,2013-02-15 08:45:00,
2013-02-15 04:00:00,22.9,20.0,29.92,SW,222,5.0,8.0,87,0.00,,,0.00,weatherlink.com 1.10,2013-02-15 09:00:00,
2013-02-15 04:19:00,24.2,20.0,29.92,SW,227,1.0,8.0,85,0.00,,,0.00,weatherlink.com 1.10,2013-02-15 09:19:00,
2013-02-15 04:30:00,24.6,20.0,29.91,WSW,238,2.0,6.0,82,0.00,,,0.00,weatherlink.com 1.10,2013-02-15 09:30:00,
2013-02-15 04:46:00,24.3,19.0,29.91,South,188,3.0,8.0,80,0.00,,,0.00,weatherlink.com 1.10,2013-02-15 09:46:00,
2013-02-15 05:00:00,23.7,19.0,29.91,SSW,192,4.0,9.0,81,0.00,,,0.00,weatherlink.com 1.10,2013-02-15 10:00:00,
2013-02-15 05:16:00,23.4,19.0,29.90,South,178,2.0,7.0,84,0.00,,,0.00,weatherlink.com 1.10,2013-02-15 10:16:00,
2013-02-15 05:30:00,23.7,20.0,29.90,SSW,204,2.0,7.0,87,0.00,,,0.00,weatherlink.com 1.10,2013-02-15 10:30:00,
2013-02-15 05:45:00,24.7,22.0,29.89,SSW,207,1.0,6.0,88,0.00,,,0.00,weatherlink.com 1.10,2013-02-15 10:45:00,
2013-02-15 06:01:00,25.2,22.0,29.89,South,180,1.0,7.0,86,0.00,,,0.00,weatherlink.com 1.10,2013-02-15 11:01:00,
2013-02-15 06:16:00,24.8,21.0,29.89,South,181,3.0,10.0,85,0.00,,,0.00,weatherlink.com 1.10,2013-02-15 11:16:00,
2013-02-15 06:31:00,24.3,21.0,29.89,SSW,203,7.0,9.0,86,0.00,,,0.00,weatherlink.com 1.10,2013-02-15 11:31:00,
2013-02-15 06:46:00,24.9,22.0,29.89,SSW,202,3.0,7.0,87,0.00,,,0.00,weatherlink.com 1.10,2013-02-15 11:46:00,
2013-02-15 07:01:00,25.7,22.0,29.89,SSW,211,4.0,9.0,85,0.00,,,0.00,weatherlink.com 1.10,2013-02-15 12:01:00,
2013-02-15 07:16:00,26.5,23.0,29.89,SW,232,6.0,9.0,85,0.00,,,0.00,weatherlink.com 1.10,2013-02-15 12:16:00,
2013-02-15 07:31:00,27.1,23.0,29.89,South,182,2.0,8.0,85,0.00,,,0.00,weatherlink.com 1.10,2013-02-15 12:31:00,
2013-02-15 07:46:00,27.3,24.0,29.90,SSW,197,1.0,7.0,86,0.00,,,0.00,weatherlink.com 1.10,2013-02-15 12:46:00,
2013-02-15 08:01:00,27.4,24.0,29.90,SSW,213,3.0,9.0,86,0.00,,,0.00,weatherlink.com 1.10,2013-02-15 13:01:00,
2013-02-15 08:16:00,27.4,24.0,29.89,South,189,4.0,5.0,87,0.00,,,0.00,weatherlink.com 1.10,2013-02-15 13:16:00,
2013-02-15 08:31:00,27.0,23.0,29.90,South,188,5.0,8.0,84,0.00,,,0.00,weatherlink.com 1.10,2013-02-15 13:31:00,
2013-02-15 08:46:00,26.7,23.0,29.89,SSW,202,4.0,5.0,87,0.00,,,0.00,weatherlink.com 1.10,2013-02-15 13:46:00,
2013-02-15 09:01:00,27.2,25.0,29.89,SSW,192,1.0,6.0,90,0.00,,,0.00,weatherlink.com 1.10,2013-02-15 14:01:00,
2013-02-15 09:16:00,28.9,27.0,29.89,SW,232,1.0,11.0,93,0.00,,,0.00,weatherlink.com 1.10,2013-02-15 14:16:00,
2013-02-15 09:31:00,30.0,28.0,29.90,West,277,2.0,6.0,92,0.00,,,0.00,weatherlink.com 1.10,2013-02-15 14:31:00,
2013-02-15 09:46:00,30.8,28.0,29.90,SW,218,2.0,13.0,89,0.00,,,0.00,weatherlink.com 1.10,2013-02-15 14:46:00,
2013-02-15 10:02:00,31.2,28.0,29.90,WSW,244,4.0,8.0,88,0.00,,,0.00,weatherlink.com 1.10,2013-02-15 15:02:00,
2013-02-15 10:17:00,31.6,29.0,29.90,SW,214,1.0,6.0,88,0.00,,,0.00,weatherlink.com 1.10,2013-02-15 15:17:00,
2013-02-15 10:31:00,32.3,29.0,29.90,WSW,237,4.0,8.0,86,0.00,,,0.00,weatherlink.com 1.10,2013-02-15 15:31:00,
2013-02-15 10:46:00,32.5,29.0,29.90,South,182,1.0,9.0,85,0.00,,,0.00,weatherlink.com 1.10,2013-02-15 15:46:00,
2013-02-15 11:01:00,32.7,28.0,29.90,South,184,1.0,2.0,84,0.00,,,0.00,weatherlink.com 1.10,2013-02-15 16:01:00,
2013-02-15 11:17:00,33.1,28.0,29.90,South,181,0.0,9.0,82,0.00,,,0.00,weatherlink.com 1.10,2013-02-15 16:17:00,
2013-02-15 11:31:00,33.8,29.0,29.89,WNW,300,5.0,8.0,81,0.00,,,0.00,weatherlink.com 1.10,2013-02-15 16:31:00,
2013-02-15 11:47:00,34.2,28.0,29.88,South,190,2.0,11.0,77,0.00,,,0.00,weatherlink.com 1.10,2013-02-15 16:47:00,
2013-02-15 12:02:00,34.5,28.0,29.89,WNW,283,3.0,8.0,77,0.00,,,0.00,weatherlink.com 1.10,2013-02-15 17:02:00,
2013-02-15 12:17:00,34.7,28.0,29.88,ENE,63,1.0,9.0,76,0.00,,,0.00,weatherlink.com 1.10,2013-02-15 17:17:00,
2013-02-15 12:32:00,35.0,28.0,29.88,WNW,291,1.0,11.0,76,0.00,,,0.00,weatherlink.com 1.10,2013-02-15 17:32:00,
2013-02-15 12:47:00,35.6,27.0,29.87,West,269,3.0,12.0,71,0.00,,,0.00,weatherlink.com 1.10,2013-02-15 17:47:00,
2013-02-15 13:02:00,35.4,27.0,29.87,SW,223,5.0,11.0,72,0.00,,,0.00,weatherlink.com 1.10,2013-02-15 18:02:00,
2013-02-15 13:17:00,35.3,27.0,29.87,SSE,161,0.0,11.0,73,0.00,,,0.00,weatherlink.com 1.10,2013-02-15 18:17:00,
2013-02-15 13:32:00,35.3,27.0,29.86,WSW,253,0.0,12.0,72,0.01,,,0.01,weatherlink.com 1.10,2013-02-15 18:32:00,
2013-02-15 13:47:00,34.9,27.0,29.87,SSE,153,1.0,9.0,74,0.01,,,0.01,weatherlink.com 1.10,2013-02-15 18:47:00,
2013-02-15 14:02:00,34.9,27.0,29.87,SW,221,2.0,8.0,74,0.01,,,0.01,weatherlink.com 1.10,2013-02-15 19:02:00,
2013-02-15 14:17:00,35.4,28.0,29.87,West,271,0.0,6.0,73,0.02,,,0.02,weatherlink.com 1.10,2013-02-15 19:17:00,
2013-02-15 14:32:00,35.6,27.0,29.87,NE,48,1.0,7.0,72,0.01,,,0.02,weatherlink.com 1.10,2013-02-15 19:32:00,
2013-02-15 14:47:00,36.3,27.0,29.87,NE,37,3.0,10.0,70,0.01,,,0.02,weatherlink.com 1.10,2013-02-15 19:47:00,
2013-02-15 15:02:00,36.8,26.0,29.87,NNW,331,1.0,13.0,65,0.01,,,0.02,weatherlink.com 1.10,2013-02-15 20:02:00,
2013-02-15 15:17:00,36.6,25.0,29.88,NW,311,0.0,15.0,63,0.01,,,0.03,weatherlink.com 1.10,2013-02-15 20:17:00,
2013-02-15 15:32:00,35.7,26.0,29.88,WSW,254,0.0,11.0,67,0.01,,,0.03,weatherlink.com 1.10,2013-02-15 20:32:00,
2013-02-15 15:47:00,35.4,25.0,29.89,WSW,242,9.0,14.0,67,0.02,,,0.04,weatherlink.com 1.10,2013-02-15 20:47:00,
2013-02-15 16:02:00,34.4,26.0,29.89,NW,321,3.0,13.0,72,0.02,,,0.04,weatherlink.com 1.10,2013-02-15 21:02:00,
2013-02-15 16:17:00,34.0,27.0,29.90,WSW,247,10.0,12.0,76,0.01,,,0.04,weatherlink.com 1.10,2013-02-15 21:17:00,
2013-02-15 16:33:00,32.8,29.0,29.90,NNE,24,1.0,9.0,84,0.01,,,0.04,weatherlink.com 1.10,2013-02-15 21:33:00,
2013-02-15 16:47:00,32.1,28.0,29.90,SW,220,0.0,7.0,85,0.00,,,0.04,weatherlink.com 1.10,2013-02-15 21:47:00,
2013-02-15 17:03:00,31.8,27.0,29.91,East,98,0.0,4.0,83,0.00,,,0.04,weatherlink.com 1.10,2013-02-15 22:03:00,
2013-02-15 17:17:00,31.4,27.0,29.91,WNW,282,0.0,3.0,82,0.00,,,0.04,weatherlink.com 1.10,2013-02-15 22:17:00,
2013-02-15 17:32:00,31.0,26.0,29.91,WNW,284,0.0,3.0,81,0.00,,,0.04,weatherlink.com 1.10,2013-02-15 22:32:00,
2013-02-15 17:47:00,30.3,25.0,29.92,West,277,0.0,3.0,80,0.01,,,0.05,weatherlink.com 1.10,2013-02-15 22:47:00,
2013-02-15 18:17:00,29.7,24.0,29.93,West,279,0.0,1.0,78,0.01,,,0.05,weatherlink.com 1.10,2013-02-15 23:17:00,
2013-02-15 18:32:00,29.3,23.0,29.92,West,279,0.0,1.0,77,0.01,,,0.05,weatherlink.com 1.10,2013-02-15 23:32:00,
2013-02-15 18:47:00,28.9,22.0,29.93,SE,126,0.0,3.0,76,0.00,,,0.05,weatherlink.com 1.10,2013-02-15 23:47:00,
2013-02-15 19:03:00,28.7,22.0,29.92,South,179,0.0,2.0,76,0.00,,,0.05,weatherlink.com 1.10,2013-02-16 00:03:00,
2013-02-15 19:18:00,28.4,22.0,29.93,South,179,0.0,2.0,77,0.00,,,0.05,weatherlink.com 1.10,2013-02-16 00:18:00,
2013-02-15 19:32:00,28.5,22.0,29.92,West,271,0.0,2.0,76,0.00,,,0.05,weatherlink.com 1.10,2013-02-16 00:32:00,
2013-02-15 19:48:00,28.5,22.0,29.93,NW,326,2.0,3.0,75,0.00,,,0.05,weatherlink.com 1.10,2013-02-16 00:48:00,
2013-02-15 20:02:00,28.7,21.0,29.93,NNW,348,0.0,6.0,73,0.00,,,0.05,weatherlink.com 1.10,2013-02-16 01:02:00,
2013-02-15 20:18:00,29.0,21.0,29.93,NNE,15,0.0,6.0,72,0.00,,,0.05,weatherlink.com 1.10,2013-02-16 01:18:00,
2013-02-15 20:32:00,29.0,21.0,29.93,NNW,341,0.0,5.0,71,0.00,,,0.05,weatherlink.com 1.10,2013-02-16 01:32:00,
2013-02-15 20:48:00,28.9,21.0,29.93,North,355,1.0,4.0,72,0.00,,,0.05,weatherlink.com 1.10,2013-02-16 01:48:00,
2013-02-15 21:02:00,28.6,21.0,29.94,NNE,12,2.0,4.0,72,0.00,,,0.05,weatherlink.com 1.10,2013-02-16 02:02:00,
2013-02-15 21:17:00,28.2,22.0,29.94,NNE,19,2.0,5.0,76,0.00,,,0.05,weatherlink.com 1.10,2013-02-16 02:17:00,
2013-02-15 21:33:00,28.0,22.0,29.94,North,5,2.0,8.0,78,0.00,,,0.05,weatherlink.com 1.10,2013-02-16 02:33:00,
2013-02-15 21:48:00,27.8,22.0,29.94,North,9,3.0,7.0,78,0.00,,,0.05,weatherlink.com 1.10,2013-02-16 02:48:00,
2013-02-15 22:02:00,27.5,22.0,29.94,NNE,28,2.0,7.0,78,0.00,,,0.05,weatherlink.com 1.10,2013-02-16 03:02:00,
2013-02-15 22:17:00,27.3,21.0,29.95,NNE,12,1.0,5.0,78,0.00,,,0.05,weatherlink.com 1.10,2013-02-16 03:17:00,
2013-02-15 22:33:00,27.2,22.0,29.94,NNE,31,0.0,2.0,79,0.00,,,0.05,weatherlink.com 1.10,2013-02-16 03:33:00,
2013-02-15 22:47:00,27.1,21.0,29.94,NNE,17,0.0,1.0,79,0.00,,,0.05,weatherlink.com 1.10,2013-02-16 03:47:00,
2013-02-15 23:02:00,27.0,21.0,29.94,NNE,15,2.0,3.0,79,0.00,,,0.05,weatherlink.com 1.10,2013-02-16 04:02:00,
2013-02-15 23:17:00,27.0,20.0,29.94,North,351,1.0,4.0,76,0.00,,,0.05,weatherlink.com 1.10,2013-02-16 04:17:00,
2013-02-15 23:32:00,27.0,20.0,29.94,NNW,340,3.0,5.0,75,0.00,,,0.05,weatherlink.com 1.10,2013-02-16 04:32:00,
2013-02-15 23:47:00,26.9,19.0,29.94,NNE,17,1.0,6.0,73,0.00,,,0.05,weatherlink.com 1.10,2013-02-16 04:47:00,